| time (UTC) | temp C | wind direction | speed KPH | gust KPH | rain 1hr cm | rain 24hr cm | rain mn cm | humidity % | barometer mb |
| 20260507025835 | 12 | 175 | 14.5 | 25.7 | 0.00 | 0.00 | 0.00 | 95 | 1018.4 |
| 20260507025135 | 12 | 159 | 8.0 | 22.5 | 0.00 | 0.00 | 0.00 | 95 | 1018.4 |
| 20260507024435 | 12 | 135 | 11.3 | 22.5 | 0.00 | 0.00 | 0.00 | 95 | 1018.3 |
| 20260507023735 | 12 | 133 | 12.9 | 20.9 | 0.00 | 0.00 | 0.00 | 95 | 1018.3 |
| 20260507023117 | 12 | 138 | 9.7 | 24.1 | 0.00 | 0.00 | 0.00 | 95 | 1018.4 |
| 20260507022417 | 12 | 140 | 9.7 | 24.1 | 0.00 | 0.00 | 0.00 | 95 | 1018.4 |
| 20260507021635 | 12 | 161 | 11.3 | 19.3 | 0.00 | 0.00 | 0.00 | 95 | 1018.4 |
| 20260507020935 | 13 | 176 | 6.4 | 19.3 | 0.00 | 0.00 | 0.00 | 95 | 1018.5 |
| 20260507020235 | 13 | 156 | 9.7 | 19.3 | 0.00 | 0.00 | 0.00 | 95 | 1018.5 |
| 20260507015535 | 13 | 183 | 6.4 | 19.3 | 0.00 | 0.00 | 0.00 | 95 | 1018.5 |
| 20260507014917 | 13 | 159 | 8.0 | 17.7 | 0.00 | 0.00 | 0.00 | 95 | 1018.5 |
| 20260507014135 | 13 | 159 | 6.4 | 24.1 | 0.00 | 0.00 | 0.00 | 95 | 1018.5 |
| 20260507013517 | 13 | 148 | 8.0 | 24.1 | 0.00 | 0.00 | 0.00 | 95 | 1018.5 |
| 20260507012735 | 13 | 153 | 11.3 | 24.1 | 0.00 | 0.00 | 0.00 | 95 | 1018.4 |
| 20260507012035 | 13 | 153 | 9.7 | 24.1 | 0.00 | 0.00 | 0.00 | 95 | 1018.5 |
| 20260507011335 | 13 | 161 | 11.3 | 27.4 | 0.00 | 0.00 | 0.00 | 95 | 1018.5 |
| 20260507010635 | 13 | 151 | 9.7 | 27.4 | 0.00 | 0.00 | 0.00 | 95 | 1018.5 |
| 20260507005935 | 13 | 161 | 8.0 | 25.7 | 0.00 | 0.00 | 0.00 | 95 | 1018.5 |
| 20260507005235 | 13 | 174 | 9.7 | 25.7 | 0.00 | 0.00 | 0.00 | 95 | 1018.6 |
| 20260507004535 | 13 | 147 | 9.7 | 22.5 | 0.00 | 0.00 | 0.00 | 96 | 1018.7 |
| 20260507003835 | 13 | 177 | 12.9 | 20.9 | 0.00 | 0.00 | 0.00 | 96 | 1018.7 |
| 20260507003135 | 13 | 161 | 6.4 | 20.9 | 0.00 | 0.00 | 0.00 | 96 | 1018.7 |
| 20260507002435 | 14 | 184 | 8.0 | 20.9 | 0.00 | 0.00 | 0.00 | 96 | 1018.7 |
| 20260507001736 | 14 | 147 | 8.0 | 17.7 | 0.00 | 0.00 | 0.00 | 96 | 1018.6 |
| 20260507001035 | 14 | 191 | 11.3 | 20.9 | 0.00 | 0.00 | 0.00 | 96 | 1018.5 |
| 20260507000336 | 14 | 156 | 12.9 | 22.5 | 0.00 | 0.00 | 0.00 | 96 | 1018.5 |
| 20260506235635 | 14 | 161 | 8.0 | 22.5 | 0.00 | 0.00 | 0.00 | 96 | 1018.5 |
| 20260506234935 | 14 | 184 | 6.4 | 24.1 | 0.00 | 0.00 | 0.00 | 96 | 1018.5 |
| 20260506234235 | 14 | 186 | 11.3 | 22.5 | 0.00 | 0.00 | 0.00 | 96 | 1018.5 |
| 20260506233535 | 14 | 164 | 9.7 | 20.9 | 0.00 | 0.00 | 0.00 | 96 | 1018.6 |
| 20260506232835 | 15 | 135 | 11.3 | 29.0 | 0.00 | 0.00 | 0.00 | 96 | 1018.5 |
| 20260506232135 | 15 | 130 | 17.7 | 29.0 | 0.00 | 0.00 | 0.00 | 96 | 1018.6 |
| 20260506231435 | 15 | 154 | 11.3 | 25.7 | 0.00 | 0.00 | 0.00 | 96 | 1018.5 |
| 20260506230735 | 15 | 188 | 11.3 | 29.0 | 0.00 | 0.00 | 0.00 | 96 | 1018.5 |
| 20260506230035 | 16 | 140 | 14.5 | 33.8 | 0.00 | 0.00 | 0.00 | 96 | 1018.5 |
| 20260506225335 | 16 | 123 | 17.7 | 25.7 | 0.00 | 0.00 | 0.00 | 97 | 1018.5 |
| 20260506224635 | 16 | 137 | 14.5 | 32.2 | 0.00 | 0.00 | 0.00 | 97 | 1018.6 |
| 20260506223934 | 16 | 131 | 16.1 | 29.0 | 0.00 | 0.00 | 0.00 | 97 | 1018.7 |
| 20260506223235 | 16 | 143 | 16.1 | 29.0 | 0.00 | 0.00 | 0.00 | 97 | 1018.7 |
| 20260506222534 | 17 | 141 | 12.9 | 22.5 | 0.00 | 0.00 | 0.00 | 97 | 1018.8 |
| 20260506221834 | 16 | 148 | 9.7 | 27.4 | 0.00 | 0.00 | 0.00 | 97 | 1018.8 |
| 20260506221217 | 16 | 161 | 12.9 | 27.4 | 0.00 | 0.00 | 0.00 | 97 | 1018.7 |
| 20260506220434 | 16 | 140 | 12.9 | 25.7 | 0.00 | 0.00 | 0.00 | 96 | 1018.7 |
| 20260506215735 | 16 | 131 | 17.7 | 32.2 | 0.00 | 0.00 | 0.00 | 96 | 1018.7 |
| 20260506215035 | 16 | 128 | 16.1 | 24.1 | 0.00 | 0.00 | 0.00 | 96 | 1018.8 |
| 20260506214334 | 16 | 154 | 11.3 | 19.3 | 0.00 | 0.00 | 0.00 | 96 | 1018.8 |
| 20260506213717 | 16 | 212 | 11.3 | 22.5 | 0.00 | 0.00 | 0.00 | 96 | 1018.8 |
| 20260506212936 | 15 | 160 | 9.7 | 20.9 | 0.00 | 0.00 | 0.00 | 96 | 1018.9 |
| 20260506212235 | 15 | 157 | 8.0 | 17.7 | 0.00 | 0.00 | 0.00 | 96 | 1018.9 |
| 20260506211535 | 15 | 167 | 8.0 | 20.9 | 0.00 | 0.00 | 0.00 | 96 | 1018.9 |
| 20260506210835 | 14 | 161 | 6.4 | 20.9 | 0.00 | 0.00 | 0.00 | 96 | 1018.9 |
| 20260506210135 | 14 | 188 | 9.7 | 19.3 | 0.00 | 0.00 | 0.00 | 96 | 1019.0 |
| 20260506205435 | 14 | 204 | 8.0 | 22.5 | 0.00 | 0.00 | 0.00 | 96 | 1018.9 |
| 20260506204817 | 15 | 196 | 11.3 | 22.5 | 0.00 | 0.00 | 0.00 | 96 | 1018.9 |
| 20260506204034 | 15 | 199 | 11.3 | 20.9 | 0.00 | 0.00 | 0.00 | 96 | 1018.8 |
| 20260506203334 | 14 | 193 | 6.4 | 17.7 | 0.00 | 0.00 | 0.00 | 96 | 1018.8 |
| 20260506202635 | 13 | 195 | 8.0 | 22.5 | 0.00 | 0.00 | 0.00 | 95 | 1018.9 |
| 20260506201934 | 12 | 191 | 6.4 | 20.9 | 0.00 | 0.00 | 0.00 | 95 | 1019.0 |
| 20260506201235 | 12 | 218 | 8.0 | 19.3 | 0.00 | 0.00 | 0.00 | 95 | 1018.9 |
| 20260506200534 | 12 | 223 | 9.7 | 19.3 | 0.00 | 0.00 | 0.00 | 95 | 1018.9 |
| 20260506195834 | 12 | 223 | 8.0 | 20.9 | 0.00 | 0.00 | 0.00 | 95 | 1018.9 |
| 20260506195136 | 12 | 206 | 6.4 | 30.6 | 0.00 | 0.00 | 0.00 | 95 | 1018.9 |
| 20260506194434 | 12 | 242 | 11.3 | 30.6 | 0.00 | 0.00 | 0.00 | 95 | 1019.0 |
| 20260506193817 | 12 | 228 | 9.7 | 25.7 | 0.00 | 0.00 | 0.00 | 95 | 1018.9 |
| 20260506193035 | 12 | 240 | 14.5 | 25.7 | 0.00 | 0.00 | 0.00 | 95 | 1018.8 |
| 20260506192335 | 12 | 246 | 8.0 | 17.7 | 0.00 | 0.00 | 0.00 | 95 | 1018.8 |
| 20260506191635 | 12 | 222 | 9.7 | 25.7 | 0.00 | 0.00 | 0.00 | 95 | 1018.7 |
| 20260506191017 | 12 | 221 | 12.9 | 27.4 | 0.00 | 0.00 | 0.00 | 95 | 1018.7 |
| 20260506190317 | 12 | 228 | 17.7 | 27.4 | 0.00 | 0.00 | 0.00 | 95 | 1018.6 |
| 20260506185534 | 12 | 230 | 12.9 | 25.7 | 0.00 | 0.00 | 0.00 | 95 | 1018.5 |
| 20260506184835 | 12 | 234 | 14.5 | 25.7 | 0.00 | 0.00 | 0.00 | 95 | 1018.5 |
| 20260506184134 | 12 | 221 | 6.4 | 25.7 | 0.00 | 0.00 | 0.00 | 95 | 1018.6 |
| 20260506183435 | 12 | 230 | 12.9 | 25.7 | 0.00 | 0.00 | 0.00 | 95 | 1018.6 |
| 20260506182734 | 12 | 232 | 11.3 | 20.9 | 0.00 | 0.00 | 0.00 | 95 | 1018.6 |
| 20260506182035 | 12 | 236 | 9.7 | 17.7 | 0.00 | 0.00 | 0.00 | 95 | 1018.4 |
| 20260506181335 | 13 | 220 | 9.7 | 17.7 | 0.00 | 0.00 | 0.00 | 95 | 1018.5 |
| 20260506180635 | 13 | 147 | 9.7 | 22.5 | 0.00 | 0.00 | 0.00 | 95 | 1018.5 |
| 20260506175934 | 13 | 132 | 11.3 | 22.5 | 0.00 | 0.00 | 0.00 | 95 | 1018.5 |
| 20260506175234 | 12 | 200 | 6.4 | 19.3 | 0.00 | 0.00 | 0.00 | 95 | 1018.5 |
| 20260506174535 | 12 | 206 | 11.3 | 19.3 | 0.00 | 0.00 | 0.00 | 95 | 1018.4 |
| 20260506173835 | 12 | 135 | 9.7 | 19.3 | 0.00 | 0.00 | 0.00 | 95 | 1018.4 |
| 20260506173135 | 12 | 144 | 6.4 | 19.3 | 0.00 | 0.00 | 0.00 | 95 | 1018.3 |
| 20260506172434 | 12 | 139 | 9.7 | 16.1 | 0.00 | 0.00 | 0.00 | 95 | 1018.2 |
| 20260506171735 | 12 | 129 | 11.3 | 16.1 | 0.00 | 0.00 | 0.00 | 95 | 1018.2 |
| 20260506171034 | 12 | 177 | 8.0 | 20.9 | 0.00 | 0.00 | 0.00 | 95 | 1018.2 |
| 20260506170335 | 12 | 146 | 9.7 | 20.9 | 0.00 | 0.00 | 0.00 | 95 | 1018.1 |
| 20260506165635 | 12 | 185 | 8.0 | 20.9 | 0.00 | 0.00 | 0.00 | 95 | 1018.1 |
| 20260506164934 | 12 | 186 | 11.3 | 20.9 | 0.00 | 0.00 | 0.00 | 95 | 1018.1 |
| 20260506164234 | 12 | 154 | 8.0 | 19.3 | 0.00 | 0.00 | 0.00 | 95 | 1018.2 |
| 20260506163535 | 12 | 148 | 8.0 | 17.7 | 0.00 | 0.00 | 0.00 | 95 | 1018.2 |
| 20260506162917 | 12 | 126 | 6.4 | 17.7 | 0.00 | 0.00 | 0.00 | 95 | 1018.2 |
| 20260506162134 | 12 | 154 | 4.8 | 17.7 | 0.00 | 0.00 | 0.00 | 95 | 1018.3 |
| 20260506161434 | 11 | 189 | 11.3 | 25.7 | 0.00 | 0.00 | 0.00 | 95 | 1018.2 |
| 20260506160734 | 11 | 201 | 8.0 | 20.9 | 0.00 | 0.00 | 0.00 | 95 | 1018.2 |
| 20260506160117 | 11 | 177 | 8.0 | 20.9 | 0.00 | 0.00 | 0.00 | 95 | 1018.3 |
| 20260506155417 | 11 | 199 | 12.9 | 19.3 | 0.00 | 0.00 | 0.00 | 95 | 1018.3 |
| 20260506154635 | 11 | 191 | 8.0 | 19.3 | 0.00 | 0.00 | 0.00 | 95 | 1018.2 |
| 20260506153934 | 11 | 149 | 9.7 | 22.5 | 0.00 | 0.00 | 0.00 | 95 | 1018.2 |
| 20260506153234 | 11 | 164 | 4.8 | 14.5 | 0.00 | 0.00 | 0.00 | 95 | 1018.1 |
| 20260506152535 | 11 | 185 | 8.0 | 16.1 | 0.00 | 0.00 | 0.00 | 95 | 1018.0 |
| 20260506151835 | 11 | 182 | 9.7 | 22.5 | 0.00 | 0.00 | 0.00 | 95 | 1017.9 |
| 20260506151134 | 11 | 192 | 8.0 | 25.7 | 0.00 | 0.00 | 0.00 | 95 | 1017.9 |
| 20260506150435 | 11 | 187 | 9.7 | 25.7 | 0.00 | 0.00 | 0.00 | 95 | 1017.7 |
| 20260506145817 | 11 | 170 | 9.7 | 20.9 | 0.00 | 0.00 | 0.00 | 95 | 1017.6 |
| 20260506145034 | 11 | 173 | 11.3 | 20.9 | 0.00 | 0.00 | 0.00 | 95 | 1017.6 |
| 20260506144335 | 11 | 197 | 9.7 | 20.9 | 0.00 | 0.00 | 0.00 | 94 | 1017.5 |
| 20260506143717 | 11 | 137 | 9.7 | 20.9 | 0.00 | 0.00 | 0.00 | 94 | 1017.4 |
| 20260506142935 | 11 | 147 | 9.7 | 22.5 | 0.00 | 0.00 | 0.00 | 95 | 1017.3 |
| 20260506142235 | 11 | 156 | 8.0 | 25.7 | 0.00 | 0.00 | 0.00 | 95 | 1017.3 |
| 20260506141534 | 11 | 140 | 8.0 | 20.9 | 0.00 | 0.00 | 0.00 | 94 | 1017.3 |
| 20260506140834 | 11 | 140 | 8.0 | 20.9 | 0.00 | 0.00 | 0.00 | 94 | 1017.3 |
| 20260506140135 | 11 | 137 | 12.9 | 17.7 | 0.00 | 0.00 | 0.00 | 94 | 1017.4 |
| 20260506135435 | 11 | 167 | 8.0 | 22.5 | 0.00 | 0.00 | 0.00 | 94 | 1017.4 |
| 20260506134734 | 11 | 156 | 6.4 | 20.9 | 0.00 | 0.00 | 0.00 | 94 | 1017.3 |
| 20260506134035 | 11 | 161 | 8.0 | 22.5 | 0.00 | 0.00 | 0.00 | 94 | 1017.1 |
| 20260506133334 | 11 | 144 | 9.7 | 20.9 | 0.00 | 0.00 | 0.00 | 94 | 1017.0 |
| 20260506132634 | 11 | 141 | 14.5 | 20.9 | 0.00 | 0.00 | 0.00 | 94 | 1016.9 |
| 20260506131934 | 10 | 147 | 11.3 | 24.1 | 0.00 | 0.00 | 0.00 | 94 | 1016.7 |
| 20260506131317 | 10 | 167 | 11.3 | 25.7 | 0.00 | 0.00 | 0.00 | 94 | 1016.7 |
| 20260506130534 | 10 | 139 | 11.3 | 25.7 | 0.00 | 0.00 | 0.00 | 94 | 1016.7 |
| 20260506125834 | 10 | 137 | 12.9 | 27.4 | 0.00 | 0.00 | 0.00 | 94 | 1016.7 |
| 20260506125134 | 10 | 144 | 12.9 | 27.4 | 0.00 | 0.00 | 0.00 | 94 | 1016.8 |
| 20260506124434 | 10 | 139 | 9.7 | 20.9 | 0.00 | 0.00 | 0.00 | 94 | 1016.7 |
| 20260506123734 | 10 | 167 | 6.4 | 19.3 | 0.00 | 0.00 | 0.00 | 94 | 1016.8 |
| 20260506123035 | 10 | 151 | 8.0 | 17.7 | 0.00 | 0.00 | 0.00 | 94 | 1016.8 |
| 20260506122334 | 10 | 144 | 8.0 | 25.7 | 0.00 | 0.00 | 0.00 | 94 | 1016.8 |
| 20260506121634 | 10 | 152 | 6.4 | 25.7 | 0.00 | 0.00 | 0.00 | 94 | 1016.8 |
| 20260506120934 | 10 | 162 | 9.7 | 29.0 | 0.00 | 0.00 | 0.00 | 94 | 1016.6 |
| 20260506120234 | 10 | 168 | 11.3 | 29.0 | 0.00 | 0.00 | 0.00 | 94 | 1016.4 |
| 20260506115534 | 10 | 186 | 8.0 | 16.1 | 0.00 | 0.00 | 0.00 | 94 | 1016.4 |
| 20260506114834 | 10 | 152 | 8.0 | 24.1 | 0.00 | 0.00 | 0.00 | 94 | 1016.3 |
| 20260506114135 | 10 | 145 | 9.7 | 22.5 | 0.00 | 0.00 | 0.00 | 94 | 1016.2 |
| 20260506113434 | 10 | 146 | 8.0 | 22.5 | 0.00 | 0.00 | 0.00 | 94 | 1016.1 |
| 20260506112734 | 10 | 138 | 11.3 | 27.4 | 0.00 | 0.00 | 0.00 | 94 | 1016.1 |
| 20260506112034 | 10 | 149 | 8.0 | 19.3 | 0.00 | 0.00 | 0.00 | 94 | 1016.1 |
| 20260506111334 | 10 | 141 | 9.7 | 16.1 | 0.00 | 0.00 | 0.00 | 94 | 1016.1 |
| 20260506110634 | 10 | 190 | 9.7 | 19.3 | 0.00 | 0.00 | 0.00 | 94 | 1016.0 |
| 20260506105935 | 10 | 172 | 8.0 | 19.3 | 0.00 | 0.00 | 0.00 | 94 | 1015.9 |
| 20260506105317 | 10 | 160 | 8.0 | 24.1 | 0.00 | 0.00 | 0.00 | 94 | 1015.8 |
| 20260506104535 | 10 | 160 | 11.3 | 24.1 | 0.00 | 0.00 | 0.00 | 94 | 1015.7 |
| 20260506103834 | 10 | 142 | 9.7 | 14.5 | 0.00 | 0.00 | 0.00 | 94 | 1015.6 |
| 20260506103135 | 10 | 155 | 9.7 | 19.3 | 0.00 | 0.00 | 0.00 | 94 | 1015.5 |
| 20260506102435 | 10 | 141 | 8.0 | 17.7 | 0.00 | 0.00 | 0.00 | 94 | 1015.6 |
| 20260506101735 | 10 | 183 | 11.3 | 30.6 | 0.00 | 0.00 | 0.00 | 94 | 1015.6 |
| 20260506101035 | 10 | 162 | 8.0 | 17.7 | 0.00 | 0.00 | 0.00 | 94 | 1015.5 |
| 20260506100335 | 10 | 159 | 9.7 | 20.9 | 0.00 | 0.00 | 0.00 | 94 | 1015.3 |
| 20260506095635 | 10 | 166 | 8.0 | 30.6 | 0.00 | 0.00 | 0.00 | 94 | 1015.3 |
| 20260506094935 | 10 | 182 | 11.3 | 27.4 | 0.00 | 0.00 | 0.00 | 94 | 1015.3 |
| 20260506094317 | 10 | 170 | 14.5 | 25.7 | 0.00 | 0.00 | 0.00 | 94 | 1015.4 |
| 20260506093617 | 10 | 157 | 14.5 | 25.7 | 0.00 | 0.00 | 0.00 | 94 | 1015.3 |
| 20260506092834 | 10 | 176 | 12.9 | 22.5 | 0.00 | 0.00 | 0.00 | 94 | 1015.2 |
| 20260506092135 | 10 | 167 | 11.3 | 22.5 | 0.00 | 0.00 | 0.00 | 94 | 1015.1 |
| 20260506091517 | 10 | 170 | 8.0 | 27.4 | 0.00 | 0.00 | 0.00 | 94 | 1015.1 |
| 20260506090817 | 10 | 163 | 8.0 | 20.9 | 0.00 | 0.00 | 0.00 | 94 | 1015.1 |
| 20260506090117 | 10 | 151 | 11.3 | 20.9 | 0.00 | 0.00 | 0.00 | 94 | 1015.0 |
| 20260506085334 | 10 | 141 | 11.3 | 22.5 | 0.00 | 0.00 | 0.00 | 94 | 1015.0 |
| 20260506084635 | 10 | 164 | 12.9 | 22.5 | 0.00 | 0.00 | 0.00 | 94 | 1015.0 |
| 20260506083935 | 11 | 153 | 9.7 | 19.3 | 0.00 | 0.00 | 0.00 | 94 | 1015.0 |
| 20260506083234 | 11 | 154 | 8.0 | 20.9 | 0.00 | 0.00 | 0.00 | 94 | 1015.0 |
| 20260506082617 | 11 | 164 | 8.0 | 19.3 | 0.00 | 0.00 | 0.00 | 94 | 1015.0 |
| 20260506081834 | 11 | 162 | 9.7 | 20.9 | 0.00 | 0.00 | 0.00 | 94 | 1014.9 |
| 20260506081134 | 11 | 145 | 11.3 | 24.1 | 0.00 | 0.00 | 0.00 | 94 | 1014.9 |
| 20260506080434 | 11 | 176 | 9.7 | 17.7 | 0.00 | 0.00 | 0.00 | 94 | 1014.8 |
| 20260506072934 | 11 | 181 | 11.3 | 30.6 | 0.00 | 0.00 | 0.00 | 95 | 1014.4 |
| 20260506072235 | 11 | 185 | 9.7 | 24.1 | 0.00 | 0.00 | 0.00 | 95 | 1014.4 |
| 20260506071534 | 11 | 186 | 11.3 | 20.9 | 0.00 | 0.00 | 0.00 | 95 | 1014.4 |
| 20260506070834 | 11 | 195 | 11.3 | 27.4 | 0.00 | 0.00 | 0.00 | 95 | 1014.5 |
| 20260506070134 | 11 | 197 | 9.7 | 24.1 | 0.00 | 0.00 | 0.00 | 95 | 1014.5 |
| 20260506061934 | 12 | 200 | 9.7 | 17.7 | 0.00 | 0.00 | 0.00 | 95 | 1014.1 |
| 20260506061317 | 12 | 191 | 11.3 | 17.7 | 0.00 | 0.00 | 0.00 | 95 | 1014.1 |
| 20260506060534 | 12 | 192 | 8.0 | 20.9 | 0.00 | 0.00 | 0.00 | 95 | 1014.1 |
| 20260506051017 | 12 | 210 | 8.0 | 17.7 | 0.00 | 0.00 | 0.00 | 95 | 1013.9 |
| 20260506050234 | 12 | 206 | 9.7 | 20.9 | 0.00 | 0.00 | 0.00 | 95 | 1013.8 |
| 20260506044917 | 12 | 195 | 9.7 | 19.3 | 0.00 | 0.00 | 0.00 | 95 | 1013.7 |
| 20260506044134 | 12 | 193 | 6.4 | 16.1 | 0.00 | 0.00 | 0.00 | 95 | 1013.6 |
| 20260506043434 | 12 | 198 | 11.3 | 19.3 | 0.00 | 0.00 | 0.00 | 95 | 1013.5 |
| 20260506042734 | 13 | 194 | 9.7 | 19.3 | 0.00 | 0.00 | 0.00 | 95 | 1013.4 |
| 20260506042116 | 13 | 194 | 9.7 | 20.9 | 0.00 | 0.00 | 0.00 | 95 | 1013.4 |
| 20260506041334 | 13 | 197 | 11.3 | 19.3 | 0.00 | 0.00 | 0.00 | 95 | 1013.4 |
| 20260506040717 | 13 | 175 | 8.0 | 17.7 | 0.00 | 0.00 | 0.00 | 95 | 1013.2 |
| 20260506035934 | 13 | 174 | 6.4 | 19.3 | 0.00 | 0.00 | 0.00 | 95 | 1013.1 |
| 20260506035234 | 13 | 190 | 9.7 | 22.5 | 0.00 | 0.00 | 0.00 | 95 | 1013.0 |
| 20260506034534 | 13 | 165 | 8.0 | 20.9 | 0.00 | 0.00 | 0.00 | 95 | 1012.9 |
| 20260506033834 | 13 | 159 | 6.4 | 22.5 | 0.00 | 0.00 | 0.00 | 95 | 1012.9 |
| 20260506033135 | 13 | 184 | 9.7 | 22.5 | 0.00 | 0.00 | 0.00 | 95 | 1012.9 |
| 20260506032516 | 13 | 168 | 9.7 | 16.1 | 0.00 | 0.00 | 0.00 | 96 | 1012.8 |
| 20260506031735 | 13 | 166 | 6.4 | 17.7 | 0.00 | 0.00 | 0.00 | 96 | 1012.8 |
| 20260506031034 | 14 | 139 | 8.0 | 17.7 | 0.00 | 0.00 | 0.00 | 96 | 1012.7 |
| 20260506030417 | 15 | 140 | 9.7 | 22.5 | 0.00 | 0.00 | 0.00 | 96 | 1012.7 |